Location: Prairie State College
(41.5244°N, 87.6382°W)
Time: 06:58:43
(UTC-05:00)

Cosmos 1140 Rocket - Visible Passes

Search period start: 01 July 2015 00:00
Search period end: 11 July 2015 00:00
Orbit: 745 x 768 km, 74.1° (Epoch: 30 June)

Date Brightness Start Highest point End Pass type
(mag) Time Alt. Az. Time Alt. Az. Time Alt. Az.
01 Jul 5.7 01:35:54 10° WNW 01:37:34 12° W 01:37:34 12° W visible
01 Jul 4.2 23:11:27 10° N 23:16:20 41° ENE 23:17:46 34° ESE visible
02 Jul 5.0 00:53:50 10° NW 00:57:47 23° W 00:57:47 23° W visible
02 Jul 5.0 22:31:33 10° N 22:35:39 24° ENE 22:38:00 18° E visible
03 Jul 4.0 00:12:49 10° NNW 00:17:43 43° WSW 00:18:01 43° WSW visible
03 Jul 5.6 21:52:13 10° NNE 21:54:47 14° NE 21:57:35 10° E visible
03 Jul 3.4 23:32:13 10° NNW 23:37:25 81° WSW 23:38:17 61° S visible
04 Jul 3.8 22:51:53 10° N 22:56:58 55° ENE 22:58:35 39° ESE visible
05 Jul 5.4 00:34:58 10° NW 00:38:22 17° W 00:38:37 17° W visible
05 Jul 4.6 22:11:50 10° N 22:16:21 31° ENE 22:18:55 21° ESE visible
05 Jul 4.5 23:53:37 10° NW 23:58:11 32° W 23:58:56 30° WSW visible
06 Jul 5.3 21:32:08 10° NNE 21:35:35 18° NE 21:39:10 10° E visible
06 Jul 3.7 23:12:50 10° NNW 23:17:56 60° WSW 23:19:17 44° SSW visible
07 Jul 3.4 22:32:23 10° NNW 22:37:33 74° ENE 22:39:40 36° SSE visible
08 Jul 5.7 00:16:34 10° WNW 00:18:47 12° W 00:19:41 12° WSW visible
08 Jul 4.2 21:52:11 10° N 21:57:03 40° ENE 22:00:05 21° ESE visible
08 Jul 5.1 23:34:32 10° NW 23:38:39 24° W 23:40:06 21° WSW visible
09 Jul 4.9 21:12:17 10° N 21:16:20 23° ENE 21:20:29 10° ESE visible
09 Jul 4.2 22:53:32 10° NNW 22:58:25 44° WSW 23:00:33 28° SSW visible
10 Jul 3.4 22:12:56 10° NNW 22:18:06 82° WSW 22:21:01 26° SSE visible
